This is the latest recevied weather packets stored in our database for station/object PACCTY. If no packets are shown the sender has not sent any weather packets the latest 10 day(s).
| Time | Temp. | Humidity | Pressure | Rain* | Wind** | Luminosity | Snow |
|---|---|---|---|---|---|---|---|
| 1777506010 | 14.44° C | 73% | 1019.5 hPa | 0 mm | - | - | - |
| 1777505707 | 14.44° C | 73% | 1019.6 hPa | 0 mm | - | - | - |
| 1777505109 | 14.44° C | 73% | 1019.8 hPa | 0 mm | - | - | - |
| 1777504807 | 15° C | 72% | 1019.8 hPa | 0 mm | - | - | - |
| 1777504507 | 15° C | 72% | 1019.9 hPa | 0 mm | - | - | - |
| 1777503908 | 15° C | 71% | 1020 hPa | 0 mm | - | - | - |
| 1777503307 | 15° C | 72% | 1020.2 hPa | 0 mm | - | - | - |
| 1777503007 | 15° C | 70% | 1020.3 hPa | 0 mm | - | - | - |
| 1777502409 | 15° C | 69% | 1020.4 hPa | 0 mm | - | - | - |
| 1777502107 | 15° C | 68% | 1020.5 hPa | 0 mm | - | - | - |
| 1777501807 | 15° C | 68% | 1020.6 hPa | 0 mm | - | - | - |
| 1777501510 | 15° C | 67% | 1020.7 hPa | 0 mm | - | - | - |
| 1777501206 | 15° C | 67% | 1020.8 hPa | 0 mm | - | - | - |
| 1777500907 | 15° C | 68% | 1020.8 hPa | 0 mm | - | - | - |
| 1777500306 | 15° C | 66% | 1020.8 hPa | 0 mm | - | - | - |
| 1777499783 | 15° C | 69% | 1020.9 hPa | 0 mm | - | - | - |
| 1777499708 | 15° C | 69% | 1020.9 hPa | 0 mm | - | - | - |
| 1777499407 | 15.56° C | 69% | 1021 hPa | 0 mm | - | - | - |
| 1777499107 | 15.56° C | 69% | 1021.1 hPa | 0 mm | - | - | - |
| 1777498808 | 15° C | 67% | 1021 hPa | 0 mm | - | - | - |
| 1777498512 | 15.56° C | 67% | 1021.1 hPa | 0 mm | - | - | - |
| 1777498207 | 15.56° C | 64% | 1021.1 hPa | 0 mm | - | - | - |
| 1777497909 | 15.56° C | 67% | 1021.1 hPa | 0 mm | - | - | - |
| 1777497307 | 15.56° C | 68% | 1021.1 hPa | 0 mm | - | - | - |
| 1777496709 | 15.56° C | 69% | 1021.2 hPa | 0 mm | - | - | - |
* Rain latest hour (hover to see other rain measurements)
** Current wind speed in m/s (hover to see current wind gust speed)